Hilo, HI

11:38 AM HST on February 23, 2017 (GMT -1000)
Hilo International

Weather History for PHTO - January, 2013

Change the Weather History Date:

Thursday, January 3, 2013

  Actual Average Record
Temperature  
Mean Temperature 72 °F 72 °F  
Max Temperature 80 °F 79 °F 86 °F (1958)
Min Temperature 64 °F 64 °F 58 °F (1960)
Degree Days  
Heating Degree Days 0 0  
Month to date heating degree days 0 0  
Since 1 July heating degree days 0 0  
Cooling Degree Days 7 7  
Month to date cooling degree days 20 21  
Year to date cooling degree days 20 21  
Growing Degree Days 22 (Base 50)    
Moisture  
Dew Point 61 °F    
Average Humidity 71    
Maximum Humidity 87    
Minimum Humidity 54    
Precipitation  
Precipitation T in 0.27 in 1.44 in (1964)
Month to date precipitation T 0.84  
Year to date precipitation T 0.84  
Snow  
Snow 0.00 in - - ()
Month to date snowfall 0.0  
Since 1 July snowfall 0.0  
Snow Depth 0.00 in    
Sea Level Pressure  
Sea Level Pressure 30.04 in    
Wind  
Wind Speed 5 mph (SW)    
Max Wind Speed 10 mph    
Max Gust Speed 14 mph    
Visibility 10 miles    
Events      
T = Trace of Precipitation, MM = Missing Value Source: NWS Daily Summary

Daily Weather History Graph

Daily Weather History Graph

Search for Another Location

Airport or City:

Trip Planner

Search our weather history database for the weather conditions in past years. The results will help you decide how hot, cold, wet, or windy it might be!

Date:

Astronomy

Jan. 03, 2013 Rise Set
Actual Time 6:55 AM HST 5:54 PM HST
Civil Twilight 6:31 AM HST 6:18 PM HST
Nautical Twilight 6:04 AM HST 6:45 PM HST
Astronomical Twilight 5:37 AM HST 7:12 PM HST
Moon 11:43 PM HST (1/3) 11:05 AM HST (1/3)
Length of Visible Light 11h 46m
Length of Day
10h 58m
Waning Gibbous, 63% of the Moon is Illuminated
Jan 3
Waning Gibbous
Jan 4
Last Quarter
Jan 11
New
Jan 18
First Quarter
Jan 26
Full

Hourly Weather History & Observations

Time (HST) Temp. Heat Index Dew Point Humidity Pressure Visibility Wind Dir Wind Speed Gust Speed Precip Events Conditions
12:53 AM 66.9 °F - 63.0 °F 87% 30.04 in 10.0 mi Calm Calm - N/A   Scattered Clouds
1:53 AM 66.9 °F - 61.0 °F 81% 30.02 in 10.0 mi SW 5.8 mph - N/A   Partly Cloudy
2:53 AM 66.0 °F - 59.0 °F 78% 30.00 in 10.0 mi SW 4.6 mph - N/A   Clear
3:53 AM 64.0 °F - 57.9 °F 80% 29.99 in 10.0 mi Calm Calm - N/A   Clear
4:53 AM 64.0 °F - 57.9 °F 80% 30.01 in 10.0 mi SW 6.9 mph - N/A   Partly Cloudy
5:53 AM 64.9 °F - 57.9 °F 78% 30.01 in 10.0 mi WSW 5.8 mph - N/A   Mostly Cloudy
6:53 AM 66.9 °F - 57.9 °F 73% 30.02 in 10.0 mi WSW 6.9 mph - N/A   Mostly Cloudy
7:53 AM 66.0 °F - 57.0 °F 73% 30.04 in 10.0 mi WSW 6.9 mph - N/A   Mostly Cloudy
8:53 AM 70.0 °F - 60.1 °F 71% 30.07 in 10.0 mi Calm Calm - 0.00 in   Overcast
10:53 AM 78.1 °F - 62.1 °F 58% 30.06 in 10.0 mi South 4.6 mph - N/A   Scattered Clouds
11:53 AM 79.0 °F - 61.0 °F 54% 30.04 in 10.0 mi Calm Calm - N/A   Scattered Clouds
12:53 PM 80.1 °F 81.2 °F 62.1 °F 54% 30.01 in 10.0 mi ENE 10.4 mph - N/A   Scattered Clouds
1:53 PM 80.1 °F 81.2 °F 62.1 °F 54% 29.99 in 10.0 mi NNE 9.2 mph - N/A   Clear
2:53 PM 78.1 °F - 62.1 °F 58% 29.99 in 10.0 mi ENE 8.1 mph - N/A   Partly Cloudy
3:53 PM 78.1 °F - 62.1 °F 58% 30.00 in 10.0 mi ENE 9.2 mph - N/A   Partly Cloudy
4:53 PM 77.0 °F - 62.1 °F 60% 30.02 in 10.0 mi NE 6.9 mph - N/A   Clear
5:53 PM 73.9 °F - 62.1 °F 66% 30.04 in 10.0 mi NE 3.5 mph - N/A   Overcast
6:53 PM 73.0 °F - 62.1 °F 68% 30.06 in 10.0 mi Calm Calm - N/A   Clear
7:53 PM 69.1 °F - 62.1 °F 78% 30.08 in 10.0 mi WSW 5.8 mph - N/A   Overcast
8:53 PM 69.1 °F - 61.0 °F 75% 30.09 in 10.0 mi WSW 3.5 mph - N/A   Overcast
9:53 PM 68.0 °F - 60.1 °F 76% 30.09 in 10.0 mi WSW 3.5 mph - N/A   Mostly Cloudy
10:53 PM 68.0 °F - 62.1 °F 81% 30.10 in 10.0 mi SSW 3.5 mph - 0.00 in   Mostly Cloudy
11:53 PM 68.0 °F - 61.0 °F 78% 30.09 in 10.0 mi Calm Calm - N/A   Mostly Cloudy